Regional Weather Roundup
Issued by NWS

Home | Current Version | Previous Version | Text Only | Print | Product List | Glossary On
Versions: 1 2 3 4 5 6 7 8 9 10 11 12 13 14 15 16 17 18 19 20 21 22 23 24 25 26 27 28 29 30 31 32 33 34 35 36 37 38 39 40 41 42 43 44 45 46 47 48 49 50
000
ASUS43 KTOP 230508
RWRKS

WEATHER ROUNDUP FOR KANSAS
NATIONAL WEATHER SERVICE GOODLAND KS
1200 AM CDT SAT SEP 23 2017

NOTE:  "FAIR" INDICATES FEW OR NO CLOUDS BELOW 12,000 FEET WITH NO
SIGNIFICANT WEATHER AND/OR OBSTRUCTIONS TO VISIBILITY.

KSZ001>006-013>018-027>032-041>047-230600-
NORTHWEST KANSAS

CITY           SKY/WX    TMP DP  RH WIND       PRES   REMARKS
GOODLAND       CLEAR     74  60  61 S18       29.83R
HAYS           MOCLDY    79  64  60 S17       29.86R
HILL CITY      PTCLDY    80  63  55 S15G23    29.84R
RUSSELL        PTCLDY    79  65  62 S17       29.86R
$$

KSZ061>065-074>080-084>089-230600-
SOUTHWEST KANSAS

CITY           SKY/WX    TMP DP  RH WIND       PRES   REMARKS
DODGE CITY     CLEAR     76  64  66 S22G28    29.90R
ELKHART          N/A     68  65  90 SE15        N/A
GARDEN CITY    CLEAR     75  64  68 SE22G33   29.86S
GREAT BEND     CLOUDY    78  66  66 S17       29.89R
LIBERAL        CLEAR     75  65  70 S22       29.87S
PRATT          PTCLDY    76  65  66 S17G24    29.91R
$$

KSZ066>073-081>083-090>101-230600-
SOUTHEAST KANSAS

CITY           SKY/WX    TMP DP  RH WIND       PRES   REMARKS
CHANUTE        CLEAR     73  68  84 SE6       29.96S
COFFEYVILLE    CLEAR     71  68  90 SE7       29.95S
HUTCHINSON     PTCLDY    78  68  71 S15       29.90S
MEDICINE LODGE   N/A     76  65  68 SE10G20   29.89F
NEWTON         PTCLDY    76  67  73 S14       29.94R
PARSONS        CLEAR     70  67  90 CALM      29.97S
WICHITA INTL   PTCLDY    76  69  79 S13       29.92R
WICHITA JABRA  CLEAR     77  69  76 S13G22    29.92S
WICHITA MCCONL PTCLDY    77  66  69 S15       29.92F
WINFIELD       CLEAR     75  69  81 S9        29.94F
$$

KSZ007>012-019>026-033>040-048>060-102>105-230600-
NORTHEAST KANSAS

CITY           SKY/WX    TMP DP  RH WIND       PRES   REMARKS
CONCORDIA      PTCLDY    77  68  73 S15       29.88S
EMPORIA        CLEAR     73  66  78 S9        29.94S
LAWRENCE       CLEAR     72  69  90 E6        29.95S
MANHATTAN      CLEAR     78  68  71 S10       29.91S
MARYSVILLE     CLEAR     77  68  73 S10       29.92S
OLATHE IND     CLEAR     73  67  81 SE7       29.97S
OLATHE EXE     CLEAR     72  69  90 SE3       29.97S
SALINA         CLOUDY    81  67  62 S15       29.89S
TOPEKA BILLARD CLEAR     75  70  84 SE5       29.94S
TOPEKA FORBES  CLEAR     76  70  82 SE8       29.95S
$$



USA.gov is the U.S. government's official web portal to all federal, state and local government web resources and services.